| Today | Week | Month | Season | Year | Rain Year | ||
|---|---|---|---|---|---|---|---|
| Outside Temperature | °C |
19.0 07:25:43 PM 13.3 06:42:54 AM |
23.0 04:17:09 PM (Sunday) 13.3 06:44:18 AM (Sunday) |
27.1 2026-08-28 03:24:56 PM 0.1 2026-08-15 03:49:59 PM |
27.1 2026-08-28 03:24:56 PM 0.1 2026-08-15 03:49:59 PM |
27.1 2026-08-28 03:24:56 PM 0.1 2026-08-15 03:49:59 PM |
27.1 2026-08-28 03:24:56 PM 0.1 2026-08-15 03:49:59 PM |
| Heat Index | °C |
18.7 07:24:43 PM 13.1 06:42:54 AM |
22.8 04:15:10 PM (Sunday) 13.1 06:42:54 AM (Monday) |
29.1 2026-08-24 02:19:34 PM 0.1 2026-08-15 03:49:59 PM |
29.1 2026-08-24 02:19:34 PM 0.1 2026-08-15 03:49:59 PM |
29.1 2026-08-24 02:19:34 PM 0.1 2026-08-15 03:49:59 PM |
29.1 2026-08-24 02:19:34 PM 0.1 2026-08-15 03:49:59 PM |
| Wind Chill | °C |
19.0 07:30:00 PM 13.4 06:45:00 AM |
23.0 04:20:00 PM (Sunday) 13.3 06:50:00 AM (Sunday) |
27.0 2026-08-28 03:35:00 PM 0.1 2026-08-15 03:49:59 PM |
27.0 2026-08-28 03:35:00 PM 0.1 2026-08-15 03:49:59 PM |
27.0 2026-08-28 03:35:00 PM 0.1 2026-08-15 03:49:59 PM |
27.0 2026-08-28 03:35:00 PM 0.1 2026-08-15 03:49:59 PM |
| Dew Point | °C |
14.1 12:00:01 AM 10.9 04:06:47 PM |
16.1 07:08:07 PM (Sunday) 10.9 04:06:47 PM (Monday) |
22.8 2026-08-24 02:11:32 PM -2.9 2026-08-15 03:49:59 PM |
22.8 2026-08-24 02:11:32 PM -2.9 2026-08-15 03:49:59 PM |
22.8 2026-08-24 02:11:32 PM -2.9 2026-08-15 03:49:59 PM |
22.8 2026-08-24 02:11:32 PM -2.9 2026-08-15 03:49:59 PM |
| Outside Humidity | % |
94 03:06:57 AM 65 07:26:43 PM |
94 03:06:57 AM (Monday) 49 04:37:08 PM (Sunday) |
97 2026-08-22 08:19:21 AM 46 2026-08-27 03:48:18 PM |
97 2026-08-22 08:19:21 AM 46 2026-08-27 03:48:18 PM |
97 2026-08-22 08:19:21 AM 46 2026-08-27 03:48:18 PM |
97 2026-08-22 08:19:21 AM 46 2026-08-27 03:48:18 PM |
| Barometer | mbar |
1017.0 05:35:44 PM 1011.1 03:31:59 AM |
1018.7 12:46:25 AM (Sunday) 1011.1 03:31:59 AM (Monday) |
1053.2 2026-08-15 03:39:09 PM 1009.8 2026-08-19 02:01:26 PM |
1053.2 2026-08-15 03:39:09 PM 1009.8 2026-08-19 02:01:26 PM |
1053.2 2026-08-15 03:39:09 PM 1009.8 2026-08-19 02:01:26 PM |
1053.2 2026-08-15 03:39:09 PM 1009.8 2026-08-19 02:01:26 PM |
| Max Wind |
km/h ° |
24 349 03:18:08 PM |
37 281 04:01:00 PM (Sunday) |
51 226 2026-08-28 06:02:45 PM |
51 226 2026-08-28 06:02:45 PM |
51 226 2026-08-28 06:02:45 PM |
51 226 2026-08-28 06:02:45 PM |
| Average Wind | km/h | 7 | 6 | 4 | 4 | 4 | 4 |
| RMS Wind | km/h | 8 | 7 | 5 | 5 | 5 | 5 |
|
Vector Average Vector Direction |
km/h ° |
6 319 |
4 293 |
2 211 |
2 211 |
2 211 |
2 211 |
| Rain | cm | 0.15 | 0.30 | 4.40 | 4.40 | 4.40 | 4.40 |
| Rain Rate | cm/h |
0.36 12:38:02 AM |
0.38 11:40:04 PM (Sunday) |
1.48 2026-08-28 05:58:57 PM |
1.48 2026-08-28 05:58:57 PM |
1.48 2026-08-28 05:58:57 PM |
1.48 2026-08-28 05:58:57 PM |
| Evapotranspiration | cm | 0.25 | 0.58 | 4.55 | 4.55 | 4.55 | 4.55 |
| UV Index |
8.2 01:37:48 PM |
8.2 01:37:48 PM (Monday) |
9.2 2026-08-20 01:15:06 PM |
9.2 2026-08-20 01:15:06 PM |
9.2 2026-08-20 01:15:06 PM |
9.2 2026-08-20 01:15:06 PM |
|
| Radiation | W/m² |
1058 01:37:48 PM 0 12:00:01 AM |
1058 01:37:48 PM (Monday) 0 12:00:25 AM (Sunday) |
1190 2026-08-20 01:15:06 PM 0 2026-08-16 08:35:30 PM |
1190 2026-08-20 01:15:06 PM 0 2026-08-16 08:35:30 PM |
1190 2026-08-20 01:15:06 PM 0 2026-08-16 08:35:30 PM |
1190 2026-08-20 01:15:06 PM 0 2026-08-16 08:35:30 PM |
| Inside Temperature | °C |
N/A N/A N/A N/A |
N/A N/A N/A N/A |
17.2 2026-08-15 03:49:59 PM 17.2 2026-08-15 03:39:09 PM |
17.2 2026-08-15 03:49:59 PM 17.2 2026-08-15 03:39:09 PM |
17.2 2026-08-15 03:49:59 PM 17.2 2026-08-15 03:39:09 PM |
17.2 2026-08-15 03:49:59 PM 17.2 2026-08-15 03:39:09 PM |
| Inside Humidity | % |
N/A N/A N/A N/A |
N/A N/A N/A N/A |
30 2026-08-15 03:39:09 PM 30 2026-08-15 03:49:59 PM |
30 2026-08-15 03:39:09 PM 30 2026-08-15 03:49:59 PM |
30 2026-08-15 03:39:09 PM 30 2026-08-15 03:49:59 PM |
30 2026-08-15 03:39:09 PM 30 2026-08-15 03:49:59 PM |
| Latitude | 46° 23.19' N |
| Longitude | 063° 14.16' W |
| Altitude | 34 meters |
| WeeWX | 5.5.0 |